Home > Weather > Larvik > Past weeks

Flag for Norway Past Weather in Larvik, Norway — Yesterday and Last 2 Weeks

Now
55 °F

Drizzle. Broken clouds.


Feels Like: 53 °F
Forecast: 52 / 60 °F
Wind: 8 mph from North

Location: Torp

Current Time: Aug 28, 2016 at 2:34:12 PM

Latest Report: Aug 28, 2016 at 1:50 PM


Visibility: N/A

Pressure: 30.04 "Hg

Humidity: 100%

Dew Point: 55 °F

Location of LarvikLocation

Past Weather in Larvik — Graph

°F

Larvik Temperature Yesterday

Maximum temperature yesterday: 68 °F (at 12:50 PM)
Minimum temperature yesterday: 52 °F (at 11:50 PM)
Average temperature yesterday: 61 °F

High & Low Weather Summary for the Past Weeks

 TemperatureHumidityPressure
High73 °F (Aug 17, 5:50 PM)100% (Aug 13, 1:20 PM)30.27 "Hg (Aug 13, 1:20 PM)
Low48 °F (Aug 28, 2:50 AM)40% (Aug 17, 1:20 PM)29.71 "Hg (Aug 13, 2:50 PM)
Average61 °F86%30.01 "Hg
* Reported Aug 13 1:20 PM — Aug 28 1:20 PM, Larvik, Weather by CustomWeather, © 2016

Note: Actual official high and low records may vary slightly from our data, if they occured in-between our weather recording intervals... More about our weather records

Advertising

Larvik Weather History for the Previous 24 Hours

Scroll right to see more
 ConditionsComfort  
Time TempWeatherWind HumidityBarometerVisibility
1:20 PM
Sun, Aug 28
55 °FLight rain. Partly sunny.8 mph100%30.04 "HgN/A
12:50 PM54 °FLight rain. Partly sunny.9 mph100%30.04 "HgN/A
12:20 PM54 °FRain. Cloudy.9 mph100%30.04 "HgN/A
11:50 AM54 °FRain. More clouds than sun.9 mph100%30.04 "HgN/A
11:20 AM54 °FRain. Cloudy.8 mph100%30.04 "HgN/A
10:50 AM54 °FRain. Partly sunny.9 mph100%30.04 "Hg6 mi
10:20 AM52 °FRain. Partly sunny.9 mph100%30.04 "Hg6 mi
9:50 AM54 °FLow clouds.9 mph100%30.04 "HgN/A
9:20 AM54 °FLow clouds.9 mph100%30.04 "HgN/A
8:50 AM52 °FMostly cloudy.9 mph100%30.04 "HgN/A
8:20 AM52 °FMostly cloudy.7 mph100%30.04 "HgN/A
7:50 AM52 °FPartly sunny.8 mph100%30.04 "HgN/A
7:20 AM50 °FLow clouds.6 mph100%30.07 "HgN/A
6:50 AM50 °FLow clouds.8 mph100%30.07 "HgN/A
6:20 AM50 °FPassing clouds.7 mph100%30.07 "HgN/A
5:50 AM48 °FClear.6 mph100%30.07 "Hg10 mi
5:20 AM48 °FCool.6 mph100%30.07 "HgN/A
4:50 AM48 °FCool.5 mph100%30.07 "HgN/A
4:20 AM50 °FCool.5 mph100%30.07 "HgN/A
3:50 AM48 °FCool.6 mph100%30.04 "HgN/A
3:20 AM50 °FCool.3 mph100%30.07 "HgN/A
2:50 AM48 °FCool.2 mph100%30.07 "HgN/A
2:20 AM52 °FCool.No wind94%30.07 "HgN/A
1:50 AM52 °FCool.2 mph94%30.07 "HgN/A
1:20 AM50 °FCool.No wind100%30.07 "HgN/A
12:50 AM52 °FCool.1 mph100%30.07 "HgN/A
12:20 AM52 °FCool.2 mph94%30.07 "HgN/A
11:50 PM
Sat, Aug 27
52 °FCool.No wind88%30.07 "HgN/A
11:20 PM54 °FCool.No wind82%30.07 "HgN/A
10:50 PM54 °FClear.2 mph82%30.07 "Hg10 mi
9:50 PM57 °FClear.3 mph67%30.07 "Hg10 mi
9:20 PM57 °FSunny.6 mph67%30.07 "Hg10 mi
8:50 PM59 °FSunny.6 mph63%30.07 "Hg10 mi
8:20 PM61 °FSunny.5 mph63%30.07 "Hg10 mi
7:50 PM63 °FSunny.6 mph52%30.07 "Hg10 mi
7:20 PM66 °FSunny.7 mph46%30.07 "Hg10 mi
6:50 PM66 °FPassing clouds.6 mph46%30.07 "HgN/A
6:20 PM68 °FPassing clouds.8 mph43%30.07 "HgN/A
5:50 PM68 °FPassing clouds.7 mph46%30.07 "HgN/A
5:20 PM68 °FPassing clouds.9 mph46%30.07 "HgN/A
4:50 PM68 °FSunny.9 mph43%30.07 "Hg10 mi
4:20 PM66 °FPassing clouds.10 mph49%30.07 "HgN/A
3:50 PM68 °FSunny.10 mph46%30.07 "Hg10 mi
3:20 PM68 °FSunny.12 mph46%30.07 "Hg10 mi
2:50 PM68 °FPassing clouds.10 mph43%30.07 "HgN/A
2:20 PM68 °FPassing clouds.9 mph46%30.07 "HgN/A
Weather by CustomWeather, © 2016

See weather overviewHow to use our weather pages